www.pogodaiklimat.ru

Погода и климат >> Архив погоды >> Россия >> Якутия >> Белая Гора


ПОГОДА в Белой Горе

  • Прогноз погоды в Белой Горе
  • Монитор погоды в Белой Горе

АРХИВ ПОГОДЫ в Белой Горе

Время (UTC), дата Ветер
(напр.,м/с)
 
Видим.   Явления Облачность Т
(С)
Тd
(С)
f
(%)
Тe
(С)
Тes
(С)
Комфортность P
(гПа)
Po
(гПа)
Тmin
(С)
Tmax
(С)
R
(мм)
R24
(мм)
S
(см)
03 15.08 СВ 4 50 км 6/1 1500 м
[Sc Ci fib]
+13.2 +4.1 54 +12 +16 1021.8 1016.8
06 15.08 В 4 50 км 1/0
[Ci fib]
+15.1 +4.3 48 +14 +17 1021.3 1016.3
09 15.08 СВ 3 50 км ясно +13.3 +5.9 61 +12 +13 1021.8 1016.8 +15.3
12 15.08 В 2 н/о н/о +8.2 +4.8 79 +6 +6 1023.2 1017.8
15 15.08 СВ 2 н/о н/о +5.9 +4.6 91 +3 +3 1023.8 1018.3
18 15.08 В 1 н/о н/о +2.6 +2.4 99 +1 +1 1024.6 1019.0
21 15.08 В 2 50 км 6/0
[Ci fib]
+7.2 +5.6 90 +5 +6 1024.6 1019.5 +2.3
00 16.08 СВ 2 50 км ясно +12.0 +6.0 67 +11 +17 1024.6 1019.6
03 16.08 С 3 50 км ясно +17.1 +7.5 53 +17 +23 1023.9 1019.0
06 16.08 СВ 3 50 км ясно +18.9 +5.6 42 +19 +22 1023.2 1018.3
09 16.08 СВ 2 50 км ясно +18.5 +5.8 43 +19 +20 1023.0 1018.1 +19.0
12 16.08 В 2 н/о н/о +12.0 +7.3 73 +11 +11 1023.7 1018.3
15 16.08 В 1 н/о н/о +7.7 +6.5 92 +7 +7 1023.7 1018.3
18 16.08 В 1 н/о н/о +6.3 +5.5 95 +5 +5 1024.9 1019.4
21 16.08 В 2 50 км ясно +10.2 +6.1 76 +9 +10 1025.1 1020.0 +5.6
00 17.08 В 3 50 км 3/0
[Ci fib]
+16.3 +5.1 47 +16 +20 1024.8 1019.8
03 17.08 В 4 50 км 4/0
[Ci fib]
+20.9 +3.7 32 +22 +26 комфорт 1024.0 1019.1
06 17.08 В 3 50 км 6/0
[Ci fib]
+22.2 +3.4 29 +22 +25 комфорт 1023.3 1018.4
09 17.08 В 2 50 км 8/0
[Cs]
+20.4 +5.3 37 +22 +22 комфорт 1023.0 1018.1 +22.4
12 17.08 В 2 н/о н/о +13.8 +5.3 56 +13 +13 1024.2 1018.9
15 17.08 СВ 1 н/о н/о +9.6 +6.6 82 +9 +9 1024.4 1019.0
18 17.08 штиль 0 н/о н/о +6.7 +5.3 91 +6 +6 1024.7 1019.2
21 17.08 В 1 50 км 6/0
[Ci fib]
+11.1 +6.9 75 +11 +13 1024.6 1019.5 +5.9
00 18.08 В 2 50 км 4/0
[Ci fib]
+18.3 +5.5 43 +19 +24 1024.1 1019.2
03 18.08 С 3 50 км 3/0
[Ci fib]
+22.3 +4.8 32 +23 +28 комфорт 1023.2 1018.3
06 18.08 В 3 50 км 8/0
[Ci fib]
+24.0 +1.2 22 +23 +25 комфорт 1022.0 1017.2
09 18.08 СВ 3 50 км 9/0
[Ci fib]
+21.6 +2.3 28 +21 +22 комфорт 1021.9 1017.0 +24.2
12 18.08 СВ 2 н/о н/о +14.4 +4.6 52 +14 +14 1022.5 1017.2
15 18.08 С 1 н/о н/о +8.1 +5.2 82 +7 +7 1022.7 1017.3
18 18.08 СВ 1 н/о н/о +6.8 +5.4 91 +6 +6 1023.1 1017.6
21 18.08 В 1 50 км 8/0
[Ci fib]
+10.3 +6.9 79 +10 +11 1022.8 1017.7 +5.7
00 19.08 С 3 50 км 6/0
[Ci fib]
+18.6 +8.5 52 +19 +22 1022.3 1017.4
03 19.08 СВ 4 50 км 6/0
[Ci fib]
+23.4 +1.9 24 +23 +27 комфорт 1020.6 1015.8
06 19.08 Ю 1 50 км 6/0
[Ci fib]
+24.8 +0.6 20 +23 +27 комфорт 1019.8 1015.0
09 19.08 В 2 50 км 4/0
[Ci fib]
+23.0 +4.2 29 +23 +23 комфорт 1019.5 1014.7 +24.9
12 19.08 СВ 2 н/о н/о +15.4 +5.9 53 +15 +15 1020.1 1014.8
15 19.08 В 1 н/о н/о +9.0 +6.2 83 +8 +8 1020.5 1015.1
18 19.08 В 1 н/о н/о +6.3 +5.3 93 +5 +5 1021.0 1015.6
21 19.08 В 1 50 км 4/0
[Ci fib]
+12.4 +8.1 75 +12 +14 1020.6 1015.6 +6.3
00 20.08 В 2 50 км 6/0
[Ci fib]
+19.1 +8.0 49 +20 +25 1020.0 1015.1
03 20.08 В 3 50 км 8/0
[Ci fib]
+24.5 +5.6 30 +24 +29 комфорт 1019.1 1014.3
06 20.08 В 2 50 км 8/0
[Ci fib]
+25.9 +4.0 24 +25 +28 комфорт 1018.3 1013.5
09 20.08 СВ 2 50 км 6/0
[Ci fib]
+24.6 +3.5 25 +24 +24 комфорт 1018.4 1013.6 +26.1
12 20.08 В 2 н/о н/о +14.5 +9.3 71 +14 +14 1019.5 1014.2
15 20.08 штиль 0 н/о н/о +9.0 +7.1 88 +8 +8 1019.7 1014.3
18 20.08 В 1 н/о н/о +7.3 +6.6 95 +6 +6 1020.1 1014.7
21 20.08 В 1 50 км 6/0
[Ci fib]
+12.2 +9.2 82 +12 +14 1020.1 1015.1 +6.0
00 21.08 СВ 2 50 км 4/0
[Ci fib]
+19.3 +8.8 51 +21 +25 комфорт 1020.0 1015.1
03 21.08 СВ 1 50 км 3/0
[Ci fib]
+23.5 +7.7 36 +24 +31 комфорт 1019.4 1014.6
06 21.08 С 4 50 км 6/0
[Ac As]
+24.2 +8.2 36 +25 +26 комфорт 1019.2 1014.4
09 21.08 СВ 3 50 км 4/0
[Ac As]
+22.6 +8.9 42 +24 +24 комфорт 1019.3 1014.5 +24.3
12 21.08 СВ 3 н/о н/о +14.9 +10.0 72 +14 +14 1021.1 1015.8
15 21.08 СВ 3 н/о н/о +11.6 +9.6 88 +10 +10 1021.3 1015.9
18 21.08 СВ 3 н/о н/о +9.5 +8.8 95 +7 +7 1021.7 1016.3
21 21.08 СВ 4 н/о н/о +9.6 +8.2 91 +7 +7 1022.1 1016.7 +9.3

 

Местоположение метеостанции Белая Гора (Якутия, Россия): широта 68.55 долгота 146.20 высота над уровнем моря 41 м.

В архиве по умолчанию представлена погода в Белой Горе за последнюю неделю. Архивные данные за месяц целиком и за предыдущие месяцы, начиная с января 2011 года, Вы можете получить, выбрав интересующий диапазон дат из раскрывающегося списка и нажав кнопку "Ввод!".


*Определитесь, кто Вы:
робот инопланетянин человек

Внимание! Время в таблицах - всемирное. Для получения местного времени необходимо прибавить поправку, которая равна 11 ч.

Смотрите также архив погоды в соседних городах и на ближайших метеорологических станциях:

Погода в Чокурдахе (Якутия, Россия) (238 км)
Погода в Усть-Моме (Якутия, Россия) (266 км)
Погода в Депутатском (Якутия, Россия) (272 км)
Погода в Среднеколымске (Якутия, Россия) (335 км)
Погода в Андрюшкино (Якутия, Россия) (340 км)
Погода в Зырянке (Якутия, Россия) (373 км)
Погода в Усть-Куйге (Якутия, Россия) (447 км)
Погода в Усть-Чарках (Якутия, Россия) (449 км)
Погода в Юбилейной (Якутия, Россия) (458 км)
Погода в Усть-Нере (Якутия, Россия) (468 км)

Пояснения к столбцам:

Ветер - указаны скорость ветра в м/с - средняя за 10 мин, порывы в срок и между сроками (в фигурных скобках) и направление, откуда дует ветер: С - северный, СВ - северо-восточный, В - восточный, ЮВ - юго-восточный, Ю - южный, ЮЗ - юго-западный, З - западный, СЗ - северо-западный.
Видимость - горизонтальная дальность видимости в метрах или километрах. При видимости от 1 до 10 км при отсутствии осадков обычно наблюдается дымка, при ухудшении видимости до 1 км и менее - туман. В сухую погоду видимость может ухудшаться дымом, пылью или мглою.
Явления - указаны атмосферные явления, наблюдавшиеся в срок или в последний час перед сроком; фигурными скобками обозначены явления, наблюдавшиеся между сроками (за 1-3 часа до срока); квадратными скобками обозначены град или гололедные отложения с указанием их диаметра в мм.
Облачность - указаны через наклонную черту общая и нижняя облачность в баллах и высота нижней границы облаков в метрах; квадратными скобками обозначены формы облаков: Ci - перистые, Cs - перисто-слоистые, Cc - перисто-кучевые, Ac - высококучевые, As - высокослоистые, Sc - слоисто-кучевые, Ns - слоисто-дождевые, Cu - кучевые, Cb - кучево-дождевые. Подробнее классификацию облаков см. в Атласе облаков (PDF).
T - Температура воздуха - температура, измеренная на высоте 2 м над землей.
Td - Температура точки росы - температура, при понижении до которой содержащийся в воздухе водяной пар достигнет насыщения.
f - Относительная влажность воздуха - влажноcть воздуха, измеренная на высоте 2 м над землей.
Te - Эффективная температура - температура, которую ощущает одетый по сезону человек в тени. Характеристика душности погоды. При расчете учитывается влияние влажности воздуха и скорости ветра на теплоощущения человека.
Tes - Эффективная температура на солнце - температура, которую ощущает человек, с поправкой на солнечный нагрев. Характеристика знойности погоды. Зависит от высоты солнца над горизонтом, облачности и скорости ветра. Ночью, в пасмурную погоду, а также при ветре 12 м/с и более поправка равна нулю.
P - Атмосферное давление - приведенное к уровню моря атмосферное давление.
Po - Атмосферное давление - измеренное на уровне метеостанции атмосферное давление.
Tmin - Минимальная температура - минимум температуры воздуха на высоте 2 м над землей.
Tmax - Максимальная температура - максимум температуры воздуха на высоте 2 м над землей.
R - Количество осадков - Количество выпавших осадков за период времени, мм. При наведении курсора мыши на число - период времени, за который выпало указанное количество осадков.
R24 - Количество осадков - Количество выпавших осадков за 24 часа, мм.
S - Снежный покров - Высота снежного покрова, см. При наведении курсора мыши на число - состояние снежного покрова и степень покрытия местности в баллах.